International Skating Union - Official Site

ISU World Junior Speed Skating Championships 2017
February 17-19, 2017

Draw | Lap Times | Index

Referee: Roar  Eriksen  (NOR)
Starter: Stefan  HERRMANN  (GER)
StartTime: EndTime: Air Temp: Ice Temp: Humidity:
11:00 11:25 3.6 ℃ -3.5 ℃ 93%
Result Team Pursuit Ladies
Rankings as of Feb 19 2017 1:32PM
Rank: No.: Team: Nation: Time: Behind:
Total 9
1 109 Netherlands (134) Joy Beune (135) Elisa Dul (136) Sanne In 't Hof (137) Jutta Leerdam NED NED 3:23.430.5 - 19.51 - (19.5)
1.0 - 34.77 - (15.2)
1.5 - 50.50 - (15.7)
2.0 - 1:06.67 - (16.1)
2.5 - 1:23.25 - (16.5)
3.0 - 1:39.67 - (16.4)
3.5 - 1:56.27 - (16.5)
4.0 - 2:12.65 - (16.3)
4.5 - 2:29.35 - (16.6)
5.0 - 2:47.06 - (17.7)
5.5 - 3:05.05 - (17.9)
6.0 - 3:23.43 - (18.3)
2 103 Japan (123) Kanako Iijima (124) Seia Kawamura (125) Moe Kitahara (127) Yuna Yoshimura JPN JPN 3:26.040.5 - 20.31 - (20.3)
1.0 - 36.18 - (15.8)
1.5 - 52.19 - (16.0)
2.0 - 1:08.49 - (16.2)
2.5 - 1:25.22 - (16.7)
3.0 - 1:42.32 - (17.0)
3.5 - 1:59.58 - (17.2)
4.0 - 2:16.78 - (17.2)
4.5 - 2:34.57 - (17.7)
5.0 - 2:51.90 - (17.3)
5.5 - 3:09.03 - (17.1)
6.0 - 3:26.04 - (16.9)
2.61
3 110 Italy (120) Noemi Bonazza (121) Chiara Cristelli (122) Deborah Grisenti ITA ITA 3:27.080.5 - 19.26 - (19.2)
1.0 - 35.22 - (15.9)
1.5 - 51.09 - (15.8)
2.0 - 1:06.99 - (15.8)
2.5 - 1:23.35 - (16.3)
3.0 - 1:39.99 - (16.6)
3.5 - 1:57.69 - (17.7)
4.0 - 2:15.57 - (17.8)
4.5 - 2:33.00 - (17.4)
5.0 - 2:50.93 - (17.9)
5.5 - 3:08.90 - (17.9)
6.0 - 3:27.08 - (18.1)
3.65
4 106 Canada (107) Véronique Déry (108) Carolane Gingras (109) Béatrice Lamarche (110) Brooklyn McDougall CAN CAN 3:27.220.5 - 19.98 - (19.9)
1.0 - 35.52 - (15.5)
1.5 - 51.59 - (16.0)
2.0 - 1:08.09 - (16.5)
2.5 - 1:25.32 - (17.2)
3.0 - 1:42.76 - (17.4)
3.5 - 1:59.91 - (17.1)
4.0 - 2:17.30 - (17.3)
4.5 - 2:34.89 - (17.5)
5.0 - 2:52.29 - (17.4)
5.5 - 3:09.72 - (17.4)
6.0 - 3:27.22 - (17.4)
3.79
5 108 China (111) Weiping Gan (113) Nan Sun (114) Dongxue Xi CHN CHN 3:27.800.5 - 19.96 - (19.9)
1.0 - 35.23 - (15.2)
1.5 - 50.32 - (15.0)
2.0 - 1:06.04 - (15.7)
2.5 - 1:22.52 - (16.4)
3.0 - 1:39.58 - (17.0)
3.5 - 1:56.63 - (17.0)
4.0 - 2:14.22 - (17.5)
4.5 - 2:32.02 - (17.8)
5.0 - 2:50.58 - (18.5)
5.5 - 3:09.48 - (18.8)
6.0 - 3:27.80 - (18.3)
4.37
6 107 Korea (130) Da Som Hwang (131) Miryeong Jeon (132) Ha Eun Kim (133) Chae Lin Um KOR KOR 3:28.840.5 - 19.66 - (19.6)
1.0 - 34.78 - (15.1)
1.5 - 50.18 - (15.3)
2.0 - 1:06.34 - (16.1)
2.5 - 1:22.95 - (16.6)
3.0 - 1:40.01 - (17.0)
3.5 - 1:57.21 - (17.1)
4.0 - 2:14.76 - (17.5)
4.5 - 2:32.43 - (17.6)
5.0 - 2:50.74 - (18.3)
5.5 - 3:09.59 - (18.8)
6.0 - 3:28.84 - (19.2)
5.41
7 111 Poland (142) Karolina Bosiek (143) Karolina  Gasecka (144) Natalia Jabrzyk (145) Olga  Kaczmarek POL POL 3:35.050.5 - 20.55 - (20.5)
1.0 - 36.93 - (16.3)
1.5 - 53.89 - (16.9)
2.0 - 1:11.07 - (17.1)
2.5 - 1:28.59 - (17.5)
3.0 - 1:46.73 - (18.1)
3.5 - 2:04.86 - (18.1)
4.0 - 2:22.47 - (17.6)
4.5 - 2:40.29 - (17.8)
5.0 - 2:58.35 - (18.0)
5.5 - 3:16.64 - (18.2)
6.0 - 3:35.05 - (18.4)
11.62
8 102 USA (153) Franchesca Bell (154) Hannah Bosman (156) Esther Munoz (157) Samantha Snyder USA USA 3:38.440.5 - 21.75 - (21.7)
1.0 - 39.28 - (17.5)
1.5 - 56.98 - (17.6)
2.0 - 1:14.31 - (17.3)
2.5 - 1:32.15 - (17.8)
3.0 - 1:49.93 - (17.7)
3.5 - 2:07.71 - (17.7)
4.0 - 2:25.31 - (17.6)
4.5 - 2:43.72 - (18.4)
5.0 - 3:01.74 - (18.0)
5.5 - 3:20.17 - (18.4)
6.0 - 3:38.44 - (18.2)
15.01
9 104 Belarus (103) Anna Kovaleva (104) Hanna Nifantava (105) Polina Polukarova BLR BLR 3:40.280.5 - 21.30 - (21.3)
1.0 - 37.72 - (16.4)
1.5 - 54.26 - (16.5)
2.0 - 1:11.13 - (16.8)
2.5 - 1:29.01 - (17.8)
3.0 - 1:46.71 - (17.6)
3.5 - 2:04.89 - (18.1)
4.0 - 2:23.26 - (18.3)
4.5 - 2:42.58 - (19.3)
5.0 - 3:01.93 - (19.3)
5.5 - 3:21.04 - (19.1)
6.0 - 3:40.28 - (19.2)
16.85